Regional Weather Roundup
Issued by NWS

Home | Current Version | Previous Version | Text Only | Print | Product List | Glossary On
Versions: 1 2 3 4 5 6 7 8 9 10 11 12 13 14 15 16 17 18 19 20 21 22 23 24 25 26 27 28 29 30 31 32 33 34 35 36 37 38 39 40 41 42 43 44 45 46 47 48 49 50
000
ASUS44 KJAN 290403
RWRMS

MISSISSIPPI HOURLY WEATHER ROUNDUP
NATIONAL WEATHER SERVICE JACKSON MS
1100 PM CDT SAT MAY 28 2016

NOTE: "FAIR: INDICATES FEW OR NO CLOUDS BELOW 12,000 FEET WITH NO
SIGNIFICANT WEATHER AND/OR OBSTRUCTIONS TO VISIBILITY.

MSZ001>002-007>008-010>013-018>021-025>028-034>036-290500-
NORTHWEST MISSISSIPPI

CITY           SKY/WX    TMP DP  RH WIND       PRES   REMARKS
BATESVILLE     FAIR      69  68  96 CALM      30.06S FOG
CLARKSDALE     CLEAR     73  73 100 CALM      30.05S
CLEVELAND      FAIR      73  73  98 SE5       30.05R
GREENWOOD      CLEAR     72  65  78 SW3       30.06S
GREENVILLE     CLEAR     72  68  87 SE6       30.05R
OLIVE BRANCH   CLEAR     70  70 100 S5        30.06S
OXFORD         FAIR      68  64  88 SE3       30.09R
TUNICA         CLEAR     70  68  94 SE3       30.05S
WINONA         FAIR      70  68  91 CALM      30.07S
$$

MSZ003>006-009-014>017-022>024-029>033-037>039-290500-
NORTHEAST MISSISSIPPI

CITY           SKY/WX    TMP DP  RH WIND       PRES   REMARKS
COLUMBUS AFB   NOT AVBL
CORINTH        FAIR      70  66  88 S3        30.07S
GOLDN TRIANGLE CLEAR     73  64  73 CALM      30.07S
STARKVILLE     FAIR      68  64  88 CALM      30.07S
TUPELO         PTCLDY    71  68  90 CALM      30.08R
$$

MSZ040-058-290500-
CENTRAL MISSISSIPPI

CITY           SKY/WX    TMP DP  RH WIND       PRES   REMARKS
JACKSON INTL   PTCLDY    70  66  87 SE3       30.07S
JACKSON HAWKNS CLEAR     74  68  81 SE5       30.07F
MADISON        FAIR      72  68  88 CALM      30.07S
MERIDIAN KEY   CLEAR     72  67  84 CALM      30.08F
MERIDIAN NAS   MOCLDY    73  67  81 CALM      30.08S
VICKSBURG TVR  CLEAR     73  70  90 CALM      30.05S
VICKSBURG VKS  PTCLDY    75  70  83 SE5       30.06R
$$

MSZ059>079-290500-
SOUTH MISSISSIPPI

CITY           SKY/WX    TMP DP  RH WIND       PRES   REMARKS
BROOKHAVEN     FAIR     N/A N/A N/A CALM      30.09S
COLUMBIA       FAIR      68  66  94 CALM      30.11S
HATTIESBURG    CLEAR     72  67  84 CALM      30.08S
MCCOMB         CLEAR     73  66  78 CALM      30.08R
NATCHEZ        CLEAR     72  66  83 SE7       30.06S
PINE BELT      CLEAR     70  64  83 CALM      30.09S
$$

MSZ080>082-290500-
COASTAL MISSISSIPPI

CITY           SKY/WX    TMP DP  RH WIND       PRES   REMARKS
BILOXI         NOT AVBL
PASCAGOULA     CLEAR     67  65  93 CALM      30.08R
GULFPORT       CLEAR     72  69  90 CALM      30.07R
$$




USA.gov is the U.S. government's official web portal to all federal, state and local government web resources and services.